Zurück zum Katalog

STARLINK-5538

AktivKommunikationSSO
NORAD 56357·PAYLOAD·🇺🇸 United States

Gestartet Apr 27, 2023 von Vandenberg Space Force Base

Loading…

Nächste Überflüge (nächste 24 Stunden)

TLE

AktuellSource: CelesTrak SupGP

Epoche: Sep 14, 2026, 22:29 UTC

1 56357C 23058AS  26257.93729167  .00057477  00000+0  17843-2 0  2571
2 56357  97.2846 254.7242 0001693  85.0773 112.0363 15.33407875    19

Verfolge STARLINK-5538 in Echtzeit mit AllMySat

Download on the App Store